Temp
-8 -8 -8 -8 -7 -7 -7 -7 -7 -7 -7 -7 -7 -7 -7 -7 -7 -7 -6 -6 -6 -6 -6 -6 -6 -6 -6 -6 -6 -6 -6 -6 -6 -6 -6 -6 -7 -7 -7 -7 -7 -7 -7 -7 -7 -7 -7 -7 -7 -7 -7 -7 -7 -7 -7 -7 -7 -7 -7 -7 -7 -7 -7
-9 -8 -8 -8 -8 -8 -8 -7 -7 -7 -7 -7 -7 -7 -7 -7 -7 -7 -6 -6 -6 -6 -6 -6 -6 -6 -6 -6 -6 -6 -6 -6 -6 -6 -6 -6 -6 -7 -7 -7 -7 -7 -7 -7 -7 -7 -7 -7 -7 -7 -7 -7 -7 -7 -7 -7 -7 -7 -7 -7 -7 -7 -7
-9 -9 -9 -8 -8 -8 -8 -8 -7 -7 -7 -7 -7 -7 -7 -7 -7 -7 -7 -6 -6 -6 -6 -6 -6 -6 -6 -6 -6 -6 -6 -6 -6 -6 -6 -6 -6 -6 -6 -7 -7 -7 -7 -7 -7 -7 -6 -6 -6 -6 -7 -7 -7 -7 -7 -7 -7 -7 -7 -7 -7 -7 -7
-8 -9 -9 -9 -8 -8 -8 -8 -7 -7 -7 -7 -7 -7 -7 -7 -7 -7 -7 -7 -6 -6 -6 -6 -6 -6 -6 -6 -6 -6 -6 -6 -6 -6 -6 -6 -6 -6 -6 -6 -7 -7 -6 -6 -6 -6 -6 -6 -6 -6 -6 -7 -7 -7 -7 -7 -7 -7 -7 -7 -7 -7 -7
-8 -9 -9 -9 -9 -8 -8 -8 -7 -7 -7 -7 -7 -7 -7 -7 -7 -7 -7 -7 -7 -7 -6 -6 -6 -6 -6 -6 -6 -6 -6 -6 -6 -6 -6 -6 -6 -6 -6 -6 -6 -6 -6 -6 -6 -6 -6 -6 -6 -6 -6 -7 -7 -7 -7 -7 -7 -7 -7 -7 -7 -7 -7
-9 -8 -9 -9 -9 -9 -8 -8 -8 -7 -7 -7 -7 -7 -7 -7 -7 -7 -7 -7 -7 -7 -7 -6 -6 -6 -6 -6 -6 -6 -6 -6 -6 -6 -6 -6 -6 -6 -6 -6 -6 -6 -6 -6 -6 -6 -6 -7 -7 -6 -6 -7 -7 -7 -7 -7 -6 -6 -6 -7 -7 -7 -7
-9 -9 -8 -8 -8 -9 -8 -8 -8 -8 -7 -7 -7 -7 -7 -7 -7 -7 -7 -7 -7 -7 -7 -7 -6 -6 -6 -6 -6 -6 -6 -6 -6 -6 -6 -6 -6 -6 -6 -6 -6 -6 -6 -6 -6 -6 -6 -7 -7 -7 -7 -7 -7 -6 -6 -6 -6 -6 -6 -6 -6 -6 -6
-8 -8 -8 -8 -8 -8 -8 -8 -8 -8 -8 -7 -7 -7 -7 -7 -7 -7 -7 -7 -7 -7 -7 -7 -7 -6 -6 -6 -6 -6 -6 -6 -6 -6 -6 -6 -6 -6 -6 -6 -6 -6 -6 -6 -6 -6 -6 -6 -7 -7 -7 -7 -6 -6 -6 -6 -6 -6 -6 -6 -6 -6 -6
-8 -8 -8 -8 -8 -8 -8 -8 -8 -8 -8 -8 -8 -7 -7 -7 -7 -7 -7 -7 -7 -7 -7 -7 -7 -6 -6 -6 -6 -6 -6 -6 -6 -6 -6 -6 -6 -6 -6 -6 -6 -6 -6 -6 -6 -6 -6 -6 -6 -6 -6 -6 -6 -6 -6 -6 -6 -6 -6 -6 -6 -6 -6
-8 -8 -8 -8 -8 -8 -8 -8 -8 -8 -8 -8 -8 -8 -8 -7 -7 -7 -7 -7 -7 -7 -7 -7 -7 -6 -6 -6 -6 -6 -6 -6 -6 -6 -6 -6 -6 -6 -6 -6 -6 -6 -6 -6 -6 -6 -6 -6 -6 -6 -6 -6 -6 -6 -6 -6 -6 -6 -6 -6 -6 -6 -6
-8 -8 -8 -8 -8 -8 -8 -8 -8 -8 -8 -8 -8 -8 -8 -8 -7 -7 -7 -7 -7 -7 -7 -7 -7 -6 -7 -7 -6 -6 -6 -6 -6 -6 -6 -6 -6 -6 -6 -6 -6 -6 -6 -6 -6 -6 -6 -6 -6 -6 -6 -6 -6 -6 -6 -6 -6 -6 -6 -6 -6 -6 -6
-9 -8 -8 -8 -8 -8 -8 -8 -8 -8 -8 -8 -8 -8 -8 -8 -8 -7 -7 -7 -7 -7 -7 -7 -7 -7 -7 -7 -7 -6 -6 -6 -6 -6 -6 -6 -6 -6 -6 -6 -6 -6 -6 -6 -6 -6 -6 -6 -6 -6 -6 -6 -6 -6 -6 -6 -6 -6 -6 -6 -6 -6 -6
-9 -9 -9 -8 -8 -8 -8 -8 -8 -8 -8 -8 -8 -8 -8 -8 -8 -8 -8 -7 -7 -7 -7 -7 -7 -7 -7 -7 -7 -7 -6 -6 -6 -6 -6 -6 -6 -6 -6 -6 -6 -6 -6 -6 -6 -6 -6 -6 -6 -6 -6 -6 -6 -6 -6 -6 -6 -6 -6 -6 -6 -6 -6
-9 -9 -9 -9 -8 -8 -8 -8 -8 -8 -8 -8 -8 -8 -8 -8 -8 -8 -8 -7 -7 -7 -7 -7 -7 -7 -6 -6 -7 -7 -7 -6 -6 -6 -6 -6 -6 -6 -6 -6 -6 -5 -6 -6 -6 -6 -6 -6 -6 -6 -6 -6 -6 -6 -6 -6 -6 -6 -6 -6 -6 -6 -6
-9 -9 -9 -9 -8 -8 -8 -8 -8 -8 -8 -8 -8 -8 -8 -8 -8 -8 -8 -8 -7 -7 -7 -7 -7 -6 -6 -6 -6 -6 -7 -7 -6 -6 -6 -6 -6 -6 -6 -6 -6 -6 -5 -6 -6 -6 -6 -6 -6 -6 -6 -6 -6 -6 -6 -6 -6 -6 -6 -6 -6 -6 -6
-9 -9 -9 -9 -9 -8 -8 -8 -8 -8 -8 -8 -8 -8 -8 -8 -8 -8 -8 -8 -8 -7 -7 -7 -6 -6 -6 -6 -6 -7 -7 -7 -6 -6 -6 -6 -6 -6 -6 -6 -6 -6 -6 -6 -6 -6 -6 -6 -6 -6 -6 -6 -6 -6 -6 -6 -6 -6 -6 -6 -7 -7 -7
-9 -9 -9 -9 -9 -8 -8 -8 -8 -8 -7 -7 -8 -8 -8 -8 -8 -8 -8 -8 -8 -8 -7 -7 -7 -6 -6 -6 -7 -7 -7 -7 -6 -6 -6 -6 -6 -6 -6 -6 -6 -6 -6 -6 -6 -6 -6 -6 -6 -6 -6 -6 -6 -6 -6 -6 -6 -6 -6 -6 -6 -6 -7
-9 -9 -9 -9 -9 -9 -8 -8 -8 -8 -8 -7 -7 -7 -8 -8 -8 -8 -8 -8 -8 -8 -8 -7 -7 -7 -6 -6 -7 -7 -7 -6 -7 -7 -6 -6 -6 -6 -6 -6 -6 -6 -6 -6 -6 -6 -6 -6 -6 -6 -6 -6 -6 -6 -6 -6 -6 -6 -6 -6 -6 -6 -6
-9 -9 -9 -9 -9 -9 -8 -8 -8 -8 -8 -7 -7 -7 -7 -7 -8 -8 -8 -8 -8 -8 -8 -8 -7 -7 -7 -7 -7 -7 -7 -6 -7 -7 -7 -7 -7 -6 -6 -6 -6 -6 -6 -6 -6 -6 -6 -6 -6 -6 -6 -6 -6 -6 -6 -6 -6 -6 -6 -6 -6 -6 -6
-9 -9 -9 -9 -9 -9 -8 -8 -8 -8 -8 -7 -7 -7 -7 -7 -7 -7 -8 -8 -8 -8 -8 -8 -8 -7 -7 -7 -7 -7 -7 -7 -7 -7 -7 -7 -7 -7 -7 -7 -7 -7 -6 -6 -6 -6 -6 -6 -6 -6 -6 -6 -6 -6 -6 -6 -6 -6 -6 -6 -6 -6 -6
-10 -9 -9 -9 -9 -9 -9 -8 -8 -8 -8 -8 -7 -7 -7 -7 -7 -7 -7 -8 -8 -8 -8 -8 -8 -8 -7 -7 -7 -7 -7 -7 -6 -7 -7 -7 -7 -7 -7 -7 -7 -7 -7 -6 -6 -6 -6 -6 -6 -6 -6 -6 -6 -6 -6 -6 -6 -6 -6 -6 -6 -6 -6
-10 -10 -9 -9 -9 -9 -9 -8 -8 -8 -8 -8 -7 -7 -7 -7 -7 -7 -7 -8 -8 -8 -8 -8 -8 -8 -7 -7 -7 -7 -7 -7 -7 -7 -7 -6 -7 -7 -7 -7 -7 -7 -7 -7 -6 -6 -6 -6 -6 -6 -6 -6 -6 -6 -6 -6 -6 -6 -6 -6 -6 -6 -6
-10 -10 -9 -9 -9 -9 -9 -9 -8 -8 -8 -8 -8 -7 -7 -7 -7 -7 -8 -8 -8 -8 -8 -8 -8 -8 -8 -7 -7 -7 -7 -7 -6 -6 -6 -6 -6 -6 -7 -7 -7 -6 -7 -7 -6 -6 -6 -6 -6 -7 -6 -6 -6 -6 -7 -7 -7 -6 -6 -6 -6 -6 -6
-10 -10 -9 -9 -9 -9 -9 -9 -9 -8 -8 -8 -8 -8 -8 -8 -8 -8 -8 -8 -8 -8 -8 -8 -8 -8 -8 -7 -7 -7 -7 -7 -6 -6 -6 -6 -6 -6 -6 -7 -7 -6 -6 -7 -7 -7 -7 -7 -7 -7 -7 -7 -7 -7 -7 -7 -7 -7 -7 -6 -6 -6 -6
-10 -10 -9 -9 -9 -9 -9 -9 -9 -9 -8 -8 -8 -8 -8 -8 -8 -8 -8 -8 -8 -8 -8 -8 -8 -8 -7 -7 -7 -7 -7 -7 -7 -6 -6 -6 -6 -6 -6 -7 -7 -6 -6 -7 -7 -7 -7 -7 -7 -7 -7 -7 -7 -7 -7 -7 -7 -7 -7 -7 -7 -7 -7
-10 -10 -10 -9 -9 -9 -9 -9 -9 -9 -8 -8 -8 -8 -8 -8 -8 -8 -8 -8 -8 -8 -8 -8 -8 -8 -8 -7 -7 -7 -7 -7 -7 -6 -6 -6 -6 -6 -7 -7 -7 -7 -7 -7 -7 -7 -7 -7 -7 -7 -7 -7 -7 -7 -7 -7 -7 -7 -7 -7 -7 -7 -7
-10 -10 -10 -10 -9 -9 -9 -9 -9 -9 -9 -9 -8 -8 -9 -9 -9 -9 -9 -9 -9 -9 -9 -8 -8 -8 -8 -7 -7 -7 -7 -7 -7 -6 -6 -6 -6 -7 -7 -7 -7 -7 -7 -7 -7 -7 -7 -7 -7 -7 -7 -7 -7 -7 -7 -7 -7 -7 -8 -8 -8 -8 -7
-10 -10 -10 -10 -10 -9 -9 -9 -9 -9 -9 -9 -9 -9 -9 -9 -9 -9 -9 -9 -9 -9 -9 -9 -9 -8 -8 -7 -7 -7 -7 -7 -7 -7 -7 -6 -7 -7 -7 -7 -7 -7 -7 -7 -7 -7 -7 -7 -7 -7 -7 -7 -7 -7 -7 -7 -7 -7 -7 -8 -8 -8 -7
-10 -10 -10 -10 -10 -10 -9 -9 -9 -9 -9 -9 -9 -9 -9 -9 -10 -10 -10 -9 -9 -9 -9 -9 -9 -8 -8 -7 -7 -7 -7 -7 -7 -7 -7 -7 -7 -7 -7 -7 -7 -7 -7 -7 -7 -7 -7 -7 -7 -7 -7 -7 -7 -7 -7 -7 -7 -7 -7 -7 -8 -8 -8
-10 -10 -10 -10 -10 -10 -9 -9 -9 -9 -9 -9 -9 -10 -10 -10 -10 -10 -10 -10 -10 -9 -9 -9 -9 -8 -8 -8 -7 -7 -8 -8 -7 -7 -7 -7 -7 -7 -7 -7 -7 -7 -7 -7 -7 -7 -7 -7 -7 -7 -7 -7 -7 -7 -7 -7 -7 -7 -7 -7 -8 -8 -8
-10 -10 -10 -10 -10 -10 -10 -9 -9 -9 -9 -9 -10 -10 -10 -10 -10 -10 -10 -10 -10 -10 -9 -9 -9 -8 -8 -8 -7 -8 -8 -8 -8 -7 -7 -7 -7 -7 -7 -7 -7 -6 -6 -7 -7 -7 -7 -7 -7 -7 -7 -7 -7 -7 -7 -7 -7 -7 -7 -7 -8 -8 -8
-11 -10 -10 -10 -10 -10 -10 -9 -9 -9 -10 -10 -10 -10 -10 -10 -10 -10 -10 -10 -10 -10 -10 -10 -9 -9 -8 -8 -8 -8 -8 -8 -8 -8 -7 -7 -7 -7 -7 -7 -7 -7 -7 -7 -7 -7 -7 -7 -7 -7 -7 -7 -8 -8 -8 -8 -8 -8 -8 -8 -8 -8 -8
-11 -11 -10 -10 -10 -10 -10 -9 -9 -10 -10 -10 -10 -10 -10 -10 -10 -10 -11 -11 -11 -11 -10 -10 -10 -10 -9 -9 -9 -9 -9 -8 -8 -8 -8 -8 -8 -8 -8 -7 -8 -8 -8 -7 -7 -7 -7 -7 -7 -7 -7 -8 -8 -8 -8 -8 -8 -8 -8 -8 -8 -8 -8
-11 -11 -10 -10 -10 -10 -10 -10 -10 -10 -10 -10 -10 -11 -11 -11 -11 -11 -11 -11 -11 -11 -10 -10 -10 -10 -10 -10 -9 -9 -9 -9 -8 -8 -8 -8 -8 -8 -8 -8 -8 -8 -8 -8 -8 -8 -8 -8 -8 -8 -8 -8 -8 -8 -8 -8 -8 -8 -8 -8 -8 -8 -8
-11 -11 -11 -10 -10 -10 -10 -10 -10 -10 -10 -10 -11 -11 -11 -11 -11 -11 -11 -11 -11 -11 -11 -10 -10 -10 -10 -10 -10 -10 -9 -9 -9 -9 -8 -8 -8 -8 -8 -8 -8 -8 -8 -8 -8 -8 -8 -8 -8 -8 -8 -8 -8 -8 -8 -9 -9 -9 -9 -9 -9 -9 -9
-11 -11 -11 -10 -10 -10 -10 -10 -10 -10 -10 -10 -10 -11 -11 -11 -11 -11 -11 -11 -11 -11 -11 -10 -10 -11 -11 -10 -10 -10 -10 -10 -9 -9 -9 -9 -9 -9 -9 -9 -9 -9 -9 -9 -9 -9 -9 -9 -9 -9 -9 -9 -9 -9 -9 -9 -9 -9 -9 -9 -9 -9 -10
-11 -11 -11 -10 -10 -10 -10 -10 -10 -10 -11 -11 -11 -11 -11 -11 -11 -11 -11 -11 -11 -11 -11 -11 -11 -11 -11 -11 -11 -11 -10 -10 -10 -10 -10 -10 -10 -10 -10 -10 -10 -10 -10 -10 -10 -10 -10 -10 -10 -10 -10 -10 -10 -10 -10 -10 -10 -10 -10 -10 -10 -10 -11
-11 -11 -11 -11 -10 -10 -10 -11 -11 -11 -11 -11 -11 -11 -11 -11 -11 -11 -11 -11 -12 -12 -12 -12 -11 -11 -11 -11 -11 -11 -11 -11 -11 -11 -10 -10 -10 -10 -10 -10 -10 -10 -10 -10 -11 -11 -11 -11 -11 -11 -11 -10 -10 -10 -10 -11 -11 -11 -11 -11 -11 -11 -11
Height
5877 5878 5878 5879 5880 5880 5881 5882 5883 5883 5884 5884 5885 5886 5887 5888 5889 5890 5891 5892 5893 5894 5894 5895 5896 5897 5898 5898 5899 5900 5900 5901 5901 5901 5902 5903 5904 5905 5905 5906 5907 5907 5908 5909 5909 5910 5910 5911 5912 5912 5913 5913 5914 5914 5915 5916 5916 5916 5916 5917 5917 5917 5917
5876 5876 5876 5877 5878 5879 5880 5881 5881 5882 5883 5883 5884 5885 5886 5887 5888 5889 5890 5891 5892 5893 5894 5895 5895 5896 5897 5897 5898 5899 5900 5901 5901 5901 5901 5902 5903 5904 5904 5905 5906 5907 5907 5908 5908 5909 5909 5910 5910 5911 5912 5913 5913 5914 5914 5915 5915 5915 5916 5916 5916 5916 5916
5874 5874 5875 5875 5876 5877 5878 5879 5880 5880 5881 5882 5882 5883 5884 5885 5886 5887 5888 5889 5891 5892 5893 5894 5895 5895 5896 5896 5897 5898 5899 5900 5901 5901 5901 5902 5902 5903 5904 5904 5905 5906 5906 5907 5907 5908 5908 5909 5910 5910 5911 5912 5912 5913 5913 5914 5914 5915 5915 5915 5915 5916 5916
5873 5873 5873 5874 5874 5875 5876 5877 5878 5879 5879 5880 5880 5881 5882 5883 5884 5885 5887 5888 5889 5890 5891 5893 5894 5895 5895 5896 5896 5897 5898 5899 5900 5901 5902 5902 5902 5903 5903 5904 5904 5905 5905 5906 5907 5907 5908 5909 5909 5910 5910 5911 5911 5912 5912 5913 5913 5914 5914 5915 5915 5915 5915
5872 5872 5872 5872 5873 5873 5873 5874 5875 5876 5877 5878 5879 5879 5880 5881 5882 5883 5884 5885 5887 5888 5889 5891 5893 5893 5894 5895 5895 5896 5896 5897 5899 5900 5901 5902 5902 5902 5903 5903 5904 5904 5905 5905 5906 5906 5907 5908 5908 5909 5909 5909 5910 5911 5911 5912 5912 5913 5913 5914 5914 5915 5915
5870 5870 5870 5870 5871 5871 5872 5872 5873 5874 5875 5876 5877 5877 5878 5879 5880 5881 5882 5883 5884 5886 5887 5889 5890 5891 5892 5893 5894 5895 5895 5896 5897 5898 5900 5901 5902 5902 5902 5903 5903 5904 5904 5905 5905 5906 5906 5907 5907 5907 5908 5908 5909 5909 5910 5911 5911 5912 5913 5913 5914 5914 5915
5869 5868 5868 5868 5869 5869 5870 5870 5870 5871 5872 5873 5874 5875 5876 5877 5878 5879 5880 5880 5882 5884 5885 5887 5888 5889 5890 5891 5892 5893 5894 5895 5895 5897 5898 5899 5900 5901 5902 5902 5903 5903 5904 5904 5904 5905 5905 5906 5906 5906 5907 5907 5908 5908 5909 5910 5911 5911 5912 5913 5913 5914 5914
5867 5866 5866 5866 5867 5867 5868 5868 5869 5869 5869 5870 5871 5872 5873 5874 5875 5876 5878 5878 5879 5881 5883 5884 5885 5887 5888 5889 5890 5891 5893 5893 5894 5895 5897 5898 5899 5899 5900 5901 5902 5902 5903 5903 5904 5904 5904 5905 5905 5905 5906 5906 5907 5907 5908 5909 5910 5910 5911 5912 5913 5913 5914
5864 5864 5864 5865 5865 5865 5866 5866 5867 5867 5867 5867 5868 5869 5870 5872 5873 5874 5875 5876 5877 5878 5880 5881 5882 5884 5886 5887 5888 5889 5891 5892 5893 5894 5895 5896 5897 5897 5898 5899 5901 5901 5902 5903 5903 5903 5903 5904 5905 5905 5905 5906 5906 5907 5907 5908 5909 5910 5910 5911 5912 5912 5913
5862 5862 5862 5862 5863 5863 5863 5864 5864 5865 5865 5866 5866 5866 5867 5869 5870 5871 5872 5874 5875 5876 5877 5878 5879 5881 5883 5885 5886 5887 5888 5890 5891 5893 5894 5894 5895 5896 5896 5897 5899 5900 5901 5901 5901 5902 5902 5903 5904 5904 5905 5905 5906 5906 5907 5908 5908 5909 5909 5910 5911 5911 5912
5859 5859 5860 5860 5860 5861 5861 5861 5862 5862 5863 5863 5864 5864 5865 5865 5867 5868 5870 5871 5872 5872 5873 5875 5876 5879 5880 5882 5883 5885 5886 5888 5889 5890 5892 5893 5893 5894 5894 5895 5897 5898 5899 5899 5900 5900 5901 5902 5902 5903 5904 5905 5905 5906 5906 5907 5908 5908 5908 5909 5909 5910 5910
5857 5857 5857 5857 5858 5858 5858 5859 5859 5860 5860 5860 5861 5862 5862 5862 5863 5865 5866 5867 5868 5869 5870 5872 5873 5876 5877 5879 5880 5882 5884 5885 5886 5888 5889 5890 5891 5891 5892 5893 5895 5896 5897 5898 5898 5899 5899 5900 5901 5901 5902 5903 5904 5905 5905 5906 5907 5907 5907 5907 5908 5908 5909
5855 5855 5854 5854 5855 5855 5856 5856 5856 5857 5857 5857 5858 5859 5859 5860 5860 5861 5863 5864 5865 5866 5867 5869 5870 5872 5874 5875 5876 5879 5881 5882 5883 5885 5886 5887 5888 5889 5890 5891 5892 5894 5895 5896 5897 5898 5898 5898 5899 5900 5901 5901 5902 5903 5903 5904 5905 5905 5906 5906 5907 5907 5908
5853 5852 5852 5852 5852 5852 5853 5853 5853 5854 5854 5854 5855 5855 5856 5857 5858 5858 5859 5860 5862 5863 5864 5865 5867 5869 5871 5872 5873 5875 5877 5878 5880 5881 5883 5884 5885 5887 5888 5890 5891 5892 5893 5894 5895 5895 5896 5897 5898 5899 5899 5900 5900 5901 5902 5902 5902 5903 5903 5904 5905 5906 5906
5850 5850 5850 5850 5850 5850 5850 5850 5850 5851 5851 5851 5851 5852 5853 5854 5855 5855 5856 5857 5859 5860 5861 5862 5864 5865 5867 5868 5870 5871 5873 5874 5876 5878 5879 5881 5883 5885 5886 5888 5889 5890 5891 5892 5892 5893 5894 5895 5896 5897 5898 5898 5898 5899 5899 5900 5900 5901 5901 5902 5903 5903 5904
5848 5848 5848 5848 5848 5847 5847 5847 5847 5847 5848 5848 5848 5849 5850 5851 5852 5853 5853 5855 5856 5857 5858 5859 5861 5862 5863 5865 5866 5867 5868 5870 5872 5874 5876 5878 5880 5882 5884 5885 5886 5887 5888 5889 5890 5891 5892 5893 5894 5895 5896 5896 5896 5896 5897 5898 5898 5899 5900 5900 5900 5901 5901
5845 5845 5846 5846 5846 5845 5845 5844 5844 5844 5844 5845 5845 5845 5846 5847 5849 5850 5850 5852 5853 5854 5855 5856 5857 5859 5860 5861 5862 5863 5864 5866 5868 5871 5873 5875 5877 5879 5880 5881 5882 5884 5885 5887 5888 5889 5890 5891 5892 5892 5893 5893 5894 5894 5895 5896 5897 5897 5897 5898 5898 5898 5898
5843 5843 5843 5843 5843 5843 5842 5842 5841 5841 5841 5841 5842 5842 5843 5844 5845 5846 5847 5848 5849 5850 5851 5853 5854 5855 5857 5858 5859 5859 5861 5862 5865 5867 5869 5871 5873 5874 5876 5877 5878 5880 5881 5883 5885 5886 5887 5888 5888 5889 5889 5890 5891 5892 5892 5893 5894 5894 5894 5895 5895 5895 5895
5840 5840 5841 5841 5840 5840 5840 5839 5839 5838 5838 5838 5838 5839 5839 5840 5841 5842 5843 5844 5845 5847 5848 5849 5850 5852 5853 5854 5855 5857 5858 5859 5861 5863 5865 5867 5869 5870 5871 5873 5875 5876 5877 5879 5880 5881 5883 5884 5885 5885 5886 5886 5887 5888 5888 5890 5891 5890 5891 5891 5892 5892 5893
5838 5838 5838 5838 5837 5837 5837 5837 5836 5836 5835 5835 5835 5835 5836 5837 5838 5839 5840 5841 5841 5843 5844 5845 5847 5848 5849 5850 5852 5853 5855 5856 5857 5859 5861 5863 5864 5865 5866 5868 5870 5871 5872 5874 5875 5877 5879 5880 5880 5881 5882 5882 5883 5883 5884 5887 5887 5887 5887 5888 5888 5889 5889
5836 5836 5835 5835 5835 5834 5834 5834 5834 5833 5833 5832 5832 5832 5832 5833 5834 5835 5836 5837 5838 5839 5840 5841 5843 5844 5846 5847 5848 5850 5851 5852 5854 5855 5857 5858 5859 5860 5861 5863 5865 5866 5868 5870 5872 5873 5874 5875 5876 5877 5877 5878 5878 5879 5881 5883 5883 5883 5884 5884 5884 5885 5885
5833 5833 5833 5832 5832 5832 5832 5831 5831 5830 5830 5829 5829 5829 5829 5829 5830 5831 5832 5833 5834 5835 5836 5838 5839 5840 5842 5843 5844 5845 5847 5848 5850 5851 5852 5853 5854 5855 5857 5859 5860 5862 5864 5866 5867 5868 5869 5870 5871 5872 5873 5874 5874 5875 5878 5879 5879 5880 5881 5880 5881 5881 5882
5830 5830 5830 5830 5829 5829 5829 5828 5828 5827 5827 5826 5826 5825 5825 5825 5826 5826 5828 5829 5830 5831 5833 5834 5836 5837 5838 5839 5840 5841 5842 5844 5846 5847 5847 5848 5849 5850 5852 5854 5855 5857 5860 5861 5862 5863 5865 5865 5866 5867 5868 5869 5869 5870 5874 5875 5874 5875 5876 5876 5877 5878 5877
5827 5827 5827 5827 5826 5826 5826 5825 5825 5824 5823 5823 5823 5822 5822 5822 5822 5823 5823 5824 5826 5827 5828 5830 5832 5834 5835 5836 5836 5837 5838 5839 5841 5841 5842 5843 5844 5845 5846 5848 5850 5852 5855 5857 5858 5859 5860 5861 5862 5863 5864 5864 5864 5866 5869 5870 5869 5870 5871 5872 5872 5873 5873
5824 5824 5824 5824 5824 5824 5823 5822 5821 5821 5821 5820 5819 5819 5818 5818 5818 5819 5820 5820 5822 5823 5824 5826 5828 5830 5831 5832 5832 5833 5834 5835 5835 5836 5838 5838 5838 5839 5841 5843 5845 5848 5851 5852 5852 5854 5855 5857 5858 5859 5859 5860 5860 5861 5864 5865 5864 5864 5866 5867 5867 5868 5869
5821 5821 5821 5821 5821 5821 5820 5819 5818 5818 5818 5817 5816 5815 5815 5815 5815 5815 5816 5817 5818 5819 5820 5822 5824 5826 5828 5828 5828 5829 5830 5831 5831 5832 5833 5833 5834 5835 5837 5839 5842 5844 5846 5847 5848 5849 5851 5853 5853 5854 5854 5855 5856 5856 5858 5859 5859 5859 5860 5861 5861 5862 5863
5818 5818 5818 5818 5818 5818 5817 5816 5816 5815 5815 5814 5813 5812 5811 5811 5812 5812 5813 5813 5814 5815 5817 5818 5820 5822 5824 5824 5824 5825 5826 5827 5827 5827 5828 5829 5829 5831 5833 5835 5837 5840 5842 5843 5844 5845 5847 5847 5847 5848 5849 5850 5851 5851 5852 5853 5853 5853 5854 5855 5855 5856 5857
5816 5815 5815 5815 5815 5814 5814 5813 5813 5812 5811 5811 5810 5809 5808 5809 5809 5809 5809 5810 5811 5812 5814 5815 5817 5819 5820 5820 5821 5822 5822 5822 5823 5823 5823 5824 5826 5827 5829 5832 5834 5836 5838 5839 5839 5840 5841 5841 5842 5843 5844 5845 5845 5846 5847 5849 5848 5847 5848 5849 5849 5850 5852
5813 5813 5813 5812 5812 5811 5811 5810 5810 5809 5808 5808 5807 5806 5806 5806 5806 5806 5807 5807 5807 5809 5810 5812 5813 5815 5816 5817 5817 5817 5816 5817 5818 5819 5819 5820 5822 5824 5826 5829 5831 5832 5832 5833 5834 5835 5836 5836 5836 5837 5838 5838 5839 5840 5841 5843 5843 5842 5843 5844 5845 5846 5848
5810 5810 5810 5809 5809 5808 5808 5807 5806 5806 5805 5804 5804 5803 5803 5803 5803 5804 5804 5804 5805 5806 5807 5809 5810 5812 5813 5813 5813 5813 5813 5814 5816 5816 5817 5817 5819 5821 5823 5825 5827 5827 5825 5825 5827 5830 5831 5831 5830 5831 5832 5832 5833 5834 5835 5837 5838 5839 5839 5840 5841 5842 5843
5807 5807 5807 5807 5806 5805 5805 5804 5803 5802 5802 5801 5801 5800 5800 5800 5801 5801 5801 5802 5802 5803 5805 5806 5807 5808 5809 5809 5809 5809 5810 5811 5813 5814 5814 5815 5816 5818 5819 5821 5822 5821 5820 5820 5822 5824 5826 5826 5826 5826 5827 5828 5829 5829 5830 5831 5833 5834 5835 5836 5837 5838 5839
5804 5804 5804 5804 5804 5803 5802 5801 5800 5799 5799 5798 5798 5798 5798 5798 5798 5798 5799 5799 5800 5801 5802 5803 5805 5806 5806 5806 5806 5806 5807 5808 5809 5810 5811 5811 5812 5814 5815 5815 5817 5818 5818 5819 5819 5819 5821 5822 5822 5822 5823 5823 5824 5824 5825 5826 5828 5830 5831 5832 5833 5834 5835
5802 5801 5801 5801 5801 5800 5799 5798 5797 5796 5796 5796 5796 5796 5796 5796 5796 5797 5797 5798 5799 5800 5801 5802 5803 5804 5804 5804 5805 5805 5805 5805 5806 5807 5808 5808 5809 5810 5811 5812 5813 5815 5816 5815 5815 5815 5816 5817 5817 5817 5817 5818 5819 5820 5821 5822 5823 5825 5826 5828 5829 5831 5832
5799 5799 5799 5799 5798 5797 5797 5796 5795 5794 5794 5794 5794 5794 5794 5794 5795 5795 5796 5797 5798 5799 5800 5800 5801 5802 5803 5803 5803 5804 5804 5804 5804 5804 5805 5805 5806 5807 5808 5809 5810 5811 5811 5811 5810 5811 5812 5813 5813 5813 5814 5814 5815 5816 5817 5819 5821 5823 5824 5824 5825 5826 5826
5797 5797 5797 5796 5795 5794 5794 5793 5792 5792 5792 5792 5792 5792 5792 5793 5794 5794 5795 5796 5797 5798 5798 5799 5800 5801 5801 5801 5802 5802 5802 5802 5803 5803 5803 5803 5804 5804 5805 5806 5807 5807 5807 5807 5807 5808 5809 5810 5810 5811 5811 5811 5812 5813 5815 5816 5818 5819 5820 5820 5820 5820 5821
5795 5795 5794 5794 5793 5792 5791 5790 5790 5790 5790 5791 5791 5790 5790 5792 5793 5793 5794 5795 5796 5797 5797 5798 5799 5800 5800 5800 5801 5801 5800 5801 5801 5802 5802 5802 5802 5803 5803 5803 5803 5804 5804 5804 5805 5806 5807 5808 5808 5809 5809 5809 5810 5810 5811 5812 5813 5815 5815 5816 5816 5817 5817
5793 5793 5793 5792 5791 5791 5790 5789 5789 5789 5789 5789 5789 5790 5790 5791 5792 5793 5794 5795 5796 5796 5797 5797 5798 5798 5799 5800 5800 5800 5800 5800 5800 5801 5801 5801 5801 5802 5801 5801 5802 5802 5803 5803 5804 5804 5805 5806 5806 5807 5808 5808 5809 5809 5810 5811 5811 5812 5813 5813 5814 5814 5815
5791 5792 5791 5790 5789 5789 5788 5788 5788 5788 5788 5788 5789 5790 5791 5792 5792 5793 5793 5794 5795 5795 5796 5796 5796 5797 5798 5798 5799 5800 5800 5800 5800 5800 5800 5800 5800 5800 5800 5801 5801 5802 5802 5803 5804 5804 5804 5805 5805 5806 5807 5807 5808 5809 5809 5810 5810 5811 5811 5812 5812 5813 5814
Wind_Speed
11 12 13 13 14 14 12 11 10 12 13 13 14 14 14 15 16 15 15 15 16 15 15 15 14 14 13 12 12 12 11 11 10 11 11 11 11 10 10 9 9 9 9 9 8 9 9 9 9 9 8 7 7 6 6 6 5 5 5 5 5 5 5
12 12 13 13 15 15 14 13 12 13 14 14 15 16 16 17 17 17 17 16 17 17 16 16 16 16 15 15 13 13 12 11 11 11 11 11 11 11 10 9 9 9 9 9 10 10 10 9 8 8 8 8 7 7 7 6 6 6 6 6 6 6 6
12 13 14 14 15 16 17 16 14 13 14 15 15 16 17 18 17 17 18 18 18 18 19 18 17 17 16 16 16 15 14 13 12 12 11 11 11 11 10 10 10 9 9 10 10 10 9 8 8 8 8 8 8 8 8 7 7 7 7 7 7 7 7
12 13 14 15 15 16 18 19 18 16 15 15 16 16 16 17 17 17 19 20 19 19 20 20 19 18 18 18 17 17 15 15 14 13 13 12 11 11 10 10 10 10 10 10 10 10 9 8 8 8 8 8 8 8 8 8 8 8 7 7 7 7 7
11 13 14 15 16 16 18 19 21 20 19 17 17 17 17 17 17 17 18 21 22 20 21 22 21 21 20 20 19 18 18 17 15 15 14 13 12 12 12 11 11 11 10 10 10 10 9 9 9 9 9 9 9 9 9 9 9 8 8 8 7 7 7
12 13 15 16 17 17 18 19 20 21 22 20 19 19 18 17 18 17 17 18 22 23 21 21 23 23 23 22 21 21 20 19 18 16 15 14 14 14 13 12 11 10 10 10 10 10 10 10 10 10 10 10 10 10 10 10 9 9 8 8 8 8 7
12 14 15 17 18 18 19 19 20 20 22 23 22 21 20 19 18 18 16 16 19 22 23 22 23 25 25 24 24 23 22 21 20 18 17 16 15 15 14 13 12 11 10 10 10 10 10 10 10 10 10 11 11 12 11 11 10 9 9 9 8 8 7
13 14 15 17 18 19 19 20 20 20 21 22 23 22 22 20 19 18 17 16 17 19 23 25 25 25 26 26 25 25 24 23 22 20 19 17 17 16 16 14 13 12 11 11 11 10 10 10 10 10 11 11 12 12 12 11 11 11 10 10 9 8 8
13 14 15 16 17 18 19 20 21 21 21 22 23 23 23 22 21 20 19 18 18 18 20 25 28 27 26 27 27 27 26 25 24 22 21 19 18 18 18 17 15 14 13 12 12 11 11 11 11 11 12 12 13 13 13 12 12 12 11 10 10 9 9
13 15 15 16 16 16 17 19 20 21 22 22 22 23 24 24 23 22 21 20 20 19 19 22 28 29 27 27 28 29 28 26 25 24 23 21 21 20 20 19 18 16 15 15 14 13 13 12 13 13 13 13 13 14 13 13 13 13 12 11 11 11 11
13 15 16 16 17 17 18 18 20 21 22 23 23 23 24 25 25 25 24 22 21 21 19 19 23 27 28 29 29 29 30 29 27 26 25 24 23 23 22 21 20 19 18 17 16 15 14 14 14 14 15 15 14 14 14 14 14 14 14 14 13 13 13
14 15 16 17 17 18 18 18 19 21 22 24 24 23 24 25 26 26 26 25 24 23 21 19 19 21 25 29 31 30 30 31 30 28 27 27 26 26 25 23 22 22 21 20 19 18 17 16 16 15 16 16 16 15 15 15 16 16 16 16 16 15 14
14 14 15 16 17 17 17 18 18 20 22 23 24 25 24 24 25 26 27 28 27 25 24 22 20 19 20 25 30 32 31 31 32 31 30 30 29 29 28 26 25 24 23 22 22 21 20 19 18 17 17 17 17 17 17 17 18 18 18 18 17 17 16
13 13 14 15 16 16 16 16 17 19 20 22 24 25 26 25 25 26 27 29 29 28 26 24 23 21 19 21 26 31 32 32 33 33 33 32 32 31 30 28 27 26 25 24 24 23 22 21 20 19 19 18 18 17 17 18 19 19 19 19 18 18 18
14 13 14 15 15 16 16 16 16 17 19 21 23 25 26 27 26 26 27 28 29 30 29 27 25 23 21 20 23 29 34 34 34 34 34 34 33 32 31 30 29 28 27 26 26 25 24 23 22 22 21 21 20 19 18 19 19 20 20 19 19 19 19
15 14 15 15 15 16 16 17 17 17 18 20 22 24 26 27 28 27 27 27 28 30 30 29 27 25 23 22 22 27 33 36 35 34 34 34 33 33 32 32 31 30 29 28 27 26 25 25 24 24 24 24 23 22 21 21 21 21 21 21 20 20 21
16 16 15 15 15 16 17 18 18 18 18 19 21 23 25 27 28 29 28 27 27 29 30 30 29 27 25 23 23 25 30 35 37 35 34 34 33 33 33 33 33 32 31 30 29 28 27 27 27 27 27 27 27 25 24 23 23 23 23 23 23 23 23
17 17 16 16 16 17 17 18 18 19 19 19 20 22 24 26 28 29 29 28 27 28 28 29 30 29 27 26 25 25 27 31 35 36 36 34 34 34 34 34 34 34 33 32 31 31 31 30 30 30 30 30 29 29 28 26 26 26 27 26 26 25 25
18 18 17 17 17 17 17 18 18 19 20 20 20 21 23 25 27 29 30 29 28 28 27 28 29 29 29 28 27 26 26 27 30 34 36 36 35 35 36 36 35 35 35 35 34 34 33 33 33 33 32 32 32 32 32 30 29 30 30 29 29 28 28
19 18 18 18 18 18 18 18 19 20 20 21 20 20 22 24 26 29 31 31 30 28 27 27 28 29 29 29 28 28 27 27 28 30 34 36 37 38 38 37 37 37 37 37 36 35 35 35 36 35 34 34 34 35 35 33 33 33 32 32 32 31 30
19 19 19 19 19 19 19 19 19 20 20 21 21 21 21 23 25 28 30 32 32 30 28 26 27 28 29 29 29 29 29 29 29 29 30 33 38 41 41 40 39 38 38 37 37 37 36 36 37 37 37 36 36 36 36 35 36 36 35 35 34 33 32
19 19 19 19 19 19 19 19 20 20 20 21 21 21 21 22 24 26 29 32 33 32 30 27 27 27 28 29 30 30 31 31 31 31 31 32 36 41 43 42 40 39 37 37 37 37 37 37 37 37 38 37 37 37 36 36 38 38 37 37 36 35 34
19 19 19 19 19 19 19 19 19 20 20 20 20 20 21 22 23 25 27 31 33 33 32 30 28 27 28 29 30 31 32 32 32 33 34 34 35 39 43 45 43 40 39 38 37 37 37 37 37 37 37 37 38 37 35 36 38 39 39 39 38 37 36
20 20 19 19 19 19 19 19 19 19 19 19 20 20 20 21 22 24 26 29 32 33 32 31 29 27 27 28 30 32 33 33 34 35 35 35 36 38 43 46 45 42 40 40 39 38 38 38 37 37 38 38 39 39 37 38 40 40 40 40 40 39 38
20 20 20 20 19 18 18 19 19 19 19 19 20 20 20 20 21 23 25 27 30 32 32 31 29 27 27 28 29 31 32 33 34 35 34 34 36 39 42 45 45 42 41 41 41 40 38 38 38 39 40 40 41 41 40 41 43 43 42 42 42 41 39
20 20 20 20 19 18 19 19 19 19 19 19 20 20 20 20 21 22 24 25 27 29 31 31 29 28 27 27 28 29 30 31 32 32 33 34 35 38 41 43 42 40 40 41 41 41 40 40 41 41 42 42 43 43 43 43 45 45 45 44 44 42 41
21 20 20 19 19 19 19 20 20 20 20 20 20 20 20 20 20 20 22 24 25 27 28 29 29 27 26 27 27 27 28 29 30 30 31 32 33 36 39 40 39 39 40 41 41 42 43 44 44 44 44 45 45 46 45 44 45 46 46 46 46 44 42
20 20 19 19 19 20 20 20 20 20 21 20 20 20 20 19 19 19 21 22 23 25 26 27 28 27 26 26 25 26 28 29 29 28 28 29 31 34 37 37 38 38 40 42 43 43 44 45 45 44 44 46 48 48 47 45 45 47 47 46 45 44 42
19 19 19 19 19 20 20 20 20 20 21 20 20 20 19 18 17 18 19 21 22 22 24 26 27 26 25 25 25 26 27 28 27 27 27 27 29 34 36 36 35 37 41 44 45 44 44 46 46 44 44 46 48 47 47 46 45 46 46 44 43 42 41
19 19 19 19 20 20 20 20 21 21 20 20 19 19 18 17 17 17 18 20 21 21 22 24 26 26 25 24 25 26 27 27 28 28 29 28 27 31 35 35 33 36 43 49 49 46 45 47 47 45 44 44 44 44 46 45 44 43 43 42 41 40 39
20 20 20 20 20 20 20 21 21 21 19 18 18 18 17 17 16 16 16 18 20 21 20 21 23 25 25 25 26 27 27 28 29 29 29 30 29 30 33 35 37 38 40 44 47 48 48 50 50 47 44 43 42 41 41 40 38 37 37 37 38 38 36
21 21 20 19 19 19 20 20 19 18 16 16 16 17 17 17 16 15 15 15 18 20 20 19 19 20 22 24 26 28 29 29 30 30 30 30 30 31 33 36 41 41 34 30 31 35 39 42 43 43 41 39 38 37 35 34 33 31 31 32 33 34 34
21 21 20 18 18 19 18 18 17 15 14 15 15 15 16 17 16 15 14 14 15 17 19 20 19 18 19 19 20 22 24 26 29 32 33 31 28 27 27 29 32 34 29 22 21 24 27 30 31 32 31 31 30 29 29 28 27 25 24 25 25 27 28
19 19 18 18 18 18 17 16 15 14 13 13 13 13 16 18 16 14 13 13 13 15 17 19 19 19 20 20 18 16 15 17 19 22 27 29 28 25 24 24 25 25 23 21 21 22 23 24 23 22 22 22 22 22 22 21 19 17 17 18 18 19 21
17 17 17 17 17 17 17 15 13 12 12 12 11 13 17 18 15 14 14 14 14 15 16 17 18 18 19 20 20 19 17 15 13 13 15 18 20 20 20 21 21 20 18 17 18 20 22 23 21 20 20 21 22 22 22 22 22 21 21 22 21 21 22
16 15 16 17 16 16 16 14 12 11 10 10 10 11 14 16 15 14 13 12 12 12 12 13 13 13 13 14 14 15 16 14 12 11 11 11 12 13 14 15 15 15 15 16 17 19 21 22 22 21 21 22 23 23 23 23 23 24 24 24 22 21 20
16 15 15 16 15 14 13 12 10 9 9 9 8 7 9 11 12 11 10 9 8 7 7 7 7 7 6 7 7 8 10 9 8 8 8 8 7 6 6 7 7 8 9 11 11 12 13 14 15 15 15 16 16 16 16 16 16 16 16 16 15 15 15
16 14 15 16 15 13 11 10 10 8 8 9 10 9 8 8 8 7 7 6 4 3 2 3 2 2 2 3 3 4 5 5 6 6 6 6 6 5 5 4 4 3 3 4 5 5 5 5 6 6 7 7 8 8 8 9 9 9 9 9 9 10 10
Wind_Direction
257 254 252 246 245 248 251 253 246 239 239 240 243 246 246 241 236 235 234 229 225 220 215 211 206 204 204 204 206 206 202 197 191 185 181 182 184 188 191 192 192 192 189 186 184 187 191 193 192 190 190 189 189 190 191 195 198 194 192 193 196 201 206
259 256 255 250 244 243 244 245 245 243 243 246 248 248 248 246 242 237 234 233 230 225 222 218 212 207 205 205 207 211 212 210 206 200 194 192 194 196 198 199 199 199 196 195 195 199 203 202 200 200 200 199 199 200 201 204 204 201 200 199 203 209 215
259 255 255 255 249 244 242 242 243 243 243 245 247 248 248 247 246 242 237 237 235 229 225 223 220 215 211 208 208 211 215 217 217 215 210 206 204 204 204 204 204 204 203 203 205 209 212 211 209 210 210 209 209 209 209 211 211 209 208 208 210 216 221
259 253 251 253 252 249 245 242 242 244 245 244 245 247 247 245 247 247 243 239 237 233 228 224 223 222 220 216 212 212 215 220 223 224 222 218 215 212 212 210 209 209 208 208 211 214 217 217 218 219 219 218 219 219 217 217 215 213 213 216 220 225 231
259 254 250 247 248 250 249 246 243 243 245 245 245 247 247 246 248 253 252 243 234 233 232 228 224 223 223 223 220 217 216 220 225 229 228 226 221 218 218 217 217 216 213 213 214 215 216 216 218 222 222 223 224 224 224 222 219 216 216 219 225 229 235
255 254 253 250 247 246 247 248 248 245 244 244 245 247 248 248 249 254 259 249 235 231 233 232 229 226 224 224 224 223 220 219 223 227 230 229 227 224 221 220 222 221 218 218 218 218 218 216 217 220 220 221 223 225 225 224 222 220 216 217 221 224 228
250 250 251 252 251 248 244 245 248 248 246 245 244 244 246 248 249 251 256 253 239 233 233 233 232 230 228 225 225 226 225 223 221 223 226 228 229 230 228 224 223 223 223 222 222 221 220 219 219 220 220 220 222 223 222 221 219 217 214 212 216 221 226
249 249 249 251 252 252 247 243 243 246 248 248 246 244 244 245 248 247 247 249 246 241 238 235 232 232 231 229 227 227 228 228 225 222 222 224 226 229 231 230 227 225 225 227 227 224 222 222 221 221 222 221 220 219 217 216 214 213 212 212 216 225 233
253 252 252 252 252 252 250 245 242 242 245 248 249 248 245 243 244 246 244 245 248 250 245 237 232 231 231 230 230 229 229 230 229 227 224 222 223 226 229 230 230 228 227 229 231 230 227 225 223 223 223 222 220 219 216 213 213 215 217 217 223 232 238
261 257 255 255 255 254 251 248 245 243 242 243 246 248 248 245 242 243 245 245 246 251 251 241 233 231 232 231 232 232 231 231 231 230 228 225 224 226 227 229 230 229 228 228 231 232 231 228 226 226 226 224 222 221 220 217 217 221 225 228 234 241 244
270 265 261 258 258 257 255 252 248 245 243 241 240 243 246 247 244 242 243 244 245 248 252 248 237 233 234 234 233 233 232 233 232 231 231 230 227 227 227 229 230 231 231 231 231 232 232 232 231 230 230 229 226 224 224 224 226 230 234 238 243 249 253
274 271 268 264 261 259 258 256 252 248 245 242 239 238 241 244 244 242 240 241 243 244 247 249 245 240 239 236 234 233 233 233 233 232 232 232 231 229 227 227 229 231 232 233 234 234 234 233 232 233 233 233 231 229 228 230 234 238 242 245 249 254 259
276 274 272 269 267 263 260 259 257 253 249 245 241 238 238 241 243 242 240 239 240 241 242 245 246 245 245 240 234 232 233 233 232 232 232 232 233 233 231 229 228 229 231 233 235 236 237 237 236 236 237 237 235 234 233 234 237 240 243 247 252 257 261
277 276 274 272 272 269 265 263 261 258 254 250 244 239 237 239 242 242 241 238 238 238 239 241 244 244 247 245 237 231 232 234 233 231 232 232 233 235 236 235 233 231 231 232 234 236 238 240 241 241 243 243 242 240 239 240 241 243 245 247 252 256 259
277 275 274 274 274 275 274 272 268 263 258 254 249 243 238 238 241 243 243 241 239 238 237 238 241 242 243 246 242 234 231 233 233 232 232 233 234 235 237 238 239 237 235 234 234 236 238 240 242 244 245 247 247 246 245 245 247 248 250 251 252 253 255
275 275 275 275 276 278 279 280 277 272 265 258 253 249 242 238 239 243 245 244 241 239 237 236 237 240 241 244 246 240 233 232 233 233 233 233 235 237 238 239 240 241 240 239 238 238 240 242 244 246 247 248 249 248 248 249 250 252 253 253 253 252 253
275 275 276 276 278 279 281 282 281 278 273 265 257 253 247 242 239 241 244 246 244 242 239 236 234 236 238 241 244 244 239 234 232 232 234 234 235 237 238 240 241 241 242 243 242 242 242 242 243 246 248 249 251 251 251 251 252 254 255 255 256 256 255
276 276 276 276 277 278 279 280 279 278 276 272 264 257 251 245 241 241 243 245 245 244 242 239 235 233 234 237 241 244 243 239 234 233 233 234 235 236 237 239 240 241 242 243 244 244 244 243 243 244 247 249 251 253 253 252 253 254 256 257 257 257 258
275 275 275 275 275 275 276 278 279 278 276 274 270 263 255 249 243 241 242 243 245 245 245 242 237 233 232 233 237 242 244 243 238 235 235 235 236 237 237 238 240 241 241 241 241 242 244 245 245 245 246 248 251 252 252 252 253 253 254 256 257 257 258
274 274 274 274 275 275 277 279 281 280 277 275 273 269 262 254 246 242 241 243 244 245 245 245 241 236 233 232 234 239 242 243 241 239 238 238 237 237 237 237 238 240 240 240 240 241 242 244 246 247 247 248 249 251 253 253 253 253 253 254 256 256 258
274 273 274 274 276 277 280 282 284 283 281 278 275 272 268 260 251 244 241 242 244 244 244 245 244 240 235 233 233 235 238 242 243 243 243 242 240 238 237 236 237 238 239 240 241 242 243 244 246 247 248 248 249 251 253 254 254 254 254 254 255 256 257
273 273 274 275 277 279 282 286 287 285 283 281 278 275 271 266 258 249 243 241 243 244 244 244 244 242 239 236 235 234 235 239 242 244 246 247 245 241 237 236 236 237 237 239 241 242 243 244 245 247 248 249 249 251 253 255 256 255 255 254 254 255 256
272 273 275 276 279 282 286 289 289 288 284 282 281 278 274 269 263 255 247 242 242 244 245 244 244 244 242 239 238 237 236 237 240 242 245 248 248 244 238 235 235 236 236 238 241 242 243 244 244 247 248 248 249 249 251 255 257 257 256 256 255 254 253
272 273 275 278 281 286 290 292 292 290 288 286 284 281 277 271 266 260 252 245 242 243 244 244 244 244 244 243 241 240 239 237 239 242 244 247 248 245 238 234 234 235 235 237 240 243 245 246 246 247 248 248 249 250 250 253 255 256 256 256 255 254 253
272 273 276 280 284 288 293 294 293 291 291 291 289 285 279 273 267 262 255 248 243 242 244 244 243 243 245 245 244 244 243 241 241 243 245 247 248 244 237 232 233 235 237 238 241 244 246 248 249 250 250 249 250 252 253 254 255 255 254 254 254 254 254
274 276 280 283 286 289 293 294 292 291 292 293 292 288 281 274 268 263 257 250 244 242 243 244 243 241 243 246 247 246 245 243 244 245 246 247 247 242 236 231 232 236 238 239 242 245 248 250 251 251 251 250 251 254 255 255 256 256 254 253 252 251 251
277 279 283 285 287 290 293 292 290 290 291 293 293 289 283 275 269 264 257 250 244 241 241 243 243 241 241 245 248 248 246 244 244 245 246 246 243 236 231 231 233 237 239 242 245 248 251 252 252 251 250 250 252 254 254 255 257 257 255 252 251 250 250
280 281 283 286 289 292 293 292 289 288 290 291 291 289 283 275 270 264 257 250 244 240 239 241 241 240 241 244 246 247 245 242 241 243 244 243 237 230 228 230 233 237 241 243 246 250 253 255 254 253 252 251 251 251 251 252 255 256 255 252 251 251 251
281 282 284 288 292 294 293 292 290 289 289 289 289 286 280 272 268 263 256 249 244 241 238 238 239 239 240 243 244 246 246 242 240 240 240 239 235 230 228 230 235 243 247 247 247 249 253 256 255 252 250 249 250 250 251 250 250 252 253 253 253 253 252
283 285 288 292 295 295 295 294 292 290 289 287 285 281 274 268 266 263 255 247 243 240 237 237 237 237 239 243 244 247 247 244 241 239 239 239 237 233 231 230 230 237 244 245 243 242 244 249 252 250 249 251 252 254 254 252 251 252 254 254 255 255 255
285 288 291 295 297 296 296 296 294 292 287 282 278 274 268 263 262 260 253 245 240 237 234 236 237 236 239 243 245 246 247 244 241 239 239 240 239 239 238 231 224 226 236 242 243 242 242 246 251 254 255 256 255 254 252 251 251 253 255 256 256 255 256
287 290 294 296 297 298 299 299 297 292 282 274 271 269 265 260 253 251 249 243 238 235 233 233 234 237 241 244 246 247 248 246 242 240 239 239 239 241 241 233 225 228 239 245 244 243 244 245 249 253 255 254 251 248 247 247 248 251 254 255 254 252 253
288 292 295 297 298 299 301 302 299 290 276 270 269 267 262 256 248 243 242 238 234 235 235 233 232 235 241 245 246 246 245 243 241 240 240 242 245 245 244 236 228 230 238 240 236 238 240 240 243 246 247 246 243 242 241 241 240 241 242 243 243 243 244
291 295 297 299 300 301 303 302 296 286 274 268 266 258 251 248 243 237 233 231 230 234 238 239 238 239 242 246 250 250 242 236 236 236 238 244 250 250 246 240 233 231 233 235 234 234 233 232 231 229 227 226 227 227 225 220 212 208 212 215 215 218 219
295 299 301 302 303 305 305 300 289 278 270 264 262 255 242 234 228 225 223 221 223 227 232 238 241 245 248 251 254 259 260 256 250 240 232 235 240 238 231 226 222 219 219 220 221 220 220 220 218 213 208 206 208 209 207 203 199 199 203 206 207 208 210
298 303 303 303 305 307 306 296 279 268 264 259 257 250 234 220 215 216 213 208 213 221 225 229 233 240 251 258 261 265 271 274 270 260 248 239 233 226 218 211 207 205 204 204 207 210 212 213 214 212 209 205 204 203 201 202 204 205 208 212 215 217 221
299 305 304 303 305 308 304 289 268 259 261 252 232 215 211 210 211 211 203 197 205 219 229 236 236 236 247 264 276 279 280 285 289 285 278 272 264 254 241 230 222 215 210 209 209 209 209 210 212 214 214 213 212 211 211 212 213 214 216 221 225 229 234
298 305 304 302 303 304 300 284 261 254 259 243 213 190 185 194 197 198 201 203 206 210 227 249 262 271 280 301 322 322 313 310 315 319 320 316 315 316 313 300 290 282 263 249 246 243 237 229 225 229 233 232 230 231 232 232 231 232 235 238 242 247 251